Regional Weather Roundup
Issued by NWS

Home | Current Version | Previous Version | Text Only | Print | Product List | Glossary On
Versions: 1 2 3 4 5 6 7 8 9 10 11 12 13 14 15 16 17 18 19 20 21 22 23 24 25 26 27 28 29 30 31 32 33 34 35 36 37 38 39 40 41 42 43 44 45 46 47 48 49 50
000
ASUS44 KLIX 270910
RWRLA
LOUISIANA WEATHER ROUNDUP
NATIONAL WEATHER SERVICE NEW ORLEANS LA
400 AM CDT WED AUG 27 2014

NOTE: "FAIR" INDICATES FEW OR NO CLOUDS BELOW 12,000 FEET WITH NO
      SIGNIFICANT WEATHER AND/OR OBSTRUCTIONS TO VISIBILITY.
      SKY/WX - SKY CONDITION AND SIGNIFICANT WEATHER.
      TMP - AIR TEMPERATURE.    DP   - DEWPOINT TEMPERATURE.
      RH  - RELATIVE HUMIDITY.  PRES - PRESSURE.
      HX  - HEAT INDEX.         WCI  - WIND CHILL INDEX.

*  THESE STATIONS ARE NOT NWS OR FAA STATIONS AND ARE NOT UNDER
   NWS QUALITY CONTROL.

LAZ040-048-061>063-065-066-069-271000-
SOUTHEAST LOUISIANA

CITY           SKY/WX    TMP DP  RH WIND       PRES   REMARKS
N.O. AUDUBON     N/A     79  75  90 MISG        N/A
N.O. INTL ARPT PTCLDY    81  74  79 E3        29.96S
N.O. LAKEFRONT PTCLDY    83  75  77 E8        29.97S
N.O. DOWNTOWN* FAIR      81  72  74 NE6       29.97S
SLIDELL        PTCLDY    74  71  91 N5        29.97S
BATON ROUGE    CLEAR     74  71  91 CALM      29.98S
BOOTHVILLE     CLEAR     81  76  84 E5        29.95F
BELLE CHASSE   PTCLDY    79  73  82 NE5       29.96S
BOGALUSA*        N/A     72  68  86 CALM      30.00S
GALLIANO*      NOT AVBL
NEW ROADS*     FAIR      72  70  92 CALM      29.98F
GONZALES*      FAIR      74  74 100 CALM      29.96F
HAMMOND*       CLEAR     73  70  88 CALM      30.00S
HOUMA*         CLEAR     75  72  89 N3        29.95F
PORT FOURCHON* MOSUNNY   84  73  70 E10G16    29.95F

$$

LAZ041-044-053-054-271000-
SOUTHWEST LOUISIANA

CITY           SKY/WX    TMP DP  RH WIND       PRES   REMARKS
LAKE CHARLES   CLEAR     77  73  87 NE6       29.95F
LAFAYETTE      CLEAR     76  74  93 NE3       29.97S
PATTERSON        N/A     75  73  94 NE6       29.98F
SALT POINT       N/A     78  75  90 VRB3      29.93F
NEW IBERIA     CLEAR     77  74  90 NE7       29.96F
CHENAULT AIRPK CLEAR     76  73  91 N5        29.97S

$$

LAZ027-028-271000-
CENTRAL LOUISIANA

CITY           SKY/WX    TMP DP  RH WIND       PRES   REMARKS
FORT POLK      CLEAR     73  66  78 NE3       29.99F
ALEXANDRIA INT CLEAR     69  68  96 CALM      29.98F
ALEXANDRIA     CLEAR     69  66  90 CALM      30.00F

$$

LAZ001-002-271000-
NORTHWEST LOUISIANA

CITY           SKY/WX    TMP DP  RH WIND       PRES   REMARKS
SHREVEPORT     PTCLDY    73  69  87 CALM      30.01S
BARKSDALE AFB  CLEAR     72  69  91 CALM      30.02S
DTN SHREVEPORT CLEAR     73  70  90 CALM      30.02S

$$

LAZ014-016-271000-
NORTHEAST LOUISIANA

CITY           SKY/WX    TMP DP  RH WIND       PRES   REMARKS
MONROE         CLEAR     68  66  93 CALM      30.03S
TALLULAH       CLOUDY    73  66  78 CALM      30.02S

$$




USA.gov is the U.S. government's official web portal to all federal, state and local government web resources and services.